NOAA 16 DEB

Satellite information

Favourite Embed

Satellite Type and Status

DEBRISIN ORBIT

Key statistics

Satellite NOAA 16 DEB at a glance.

Uptime

9215

Days in orbit

Revolutions

≈ 15.0

Per day

Orbit

SSO

Sun Synchronous Orbit

Inclination

99.0

Latest

Satellite identification and parameters

Extended collection of information and parameters for NOAA 16 DEB.

Object identification

Identified? True

Debris? True

Object name: NOAA 16 DEB

International designator: 2000-055SK

Object number (NORAD): 42391

Object ID (CCSDS): 42391

Country: UNITED STATES OF AMERICA (US)

Current information (Y/N): Y

RCS size: SMALL

Orbital parameters

Period: 96.18 minutes

Inclination: 99.0115 deg

SMA: 6953.719 km

Apoapsis: 577.932 km

Periapsis: 573.235 km

RAAN: 236.9934 deg

Eccentricy: 0.0003377

Argument of periapsis: 289.0903 deg

Mean anomaly: 70.9949 deg

Mean motion: 14.97190593 rev/day

Mean motion (dot): 0.001539 rev/day2

B* drag term: 0.013028 1/REarth

Two-line elements (TLE)

Creation date: Dec. 10, 2025, 10:36 p.m.

Reference frame: TEME

Reference center: EARTH

Epoch: Dec. 10, 2025, 3:38 p.m. UTC

TLE line 0: 0 NOAA 16 DEB

TLE line 1: 1 42391U 00055SK 25344.65199966 .00153900 00000-0 13028-1 0 9991

TLE line 2: 2 42391 99.0115 236.9934 0003377 289.0903 70.9949 14.97190593511376

Live tracking on map

Real-time ground track for satellite NOAA 16 DEB.

In-orbit conjunctions

A list of the most updated potential collisions computed for object NOAA 16 DEB.

Target Orbit TCA Probability of collision Miss distance Type
ATLAS 28E R/B LEO 2025-07-12 12:15:43 0.0001414025 653.0 (m) ROCKET BODY
CZ-6A DEB LEO 2025-01-05 18:03:26 0.0002242433 193.0 (m) DEBRIS
CZ-6A DEB LEO 2024-11-14 04:22:13 0.0001584596 906.0 (m) DEBRIS
CZ-6A DEB LEO 2024-11-12 10:16:14 0.0001647731 630.0 (m) DEBRIS

Associated space launch

The NOAA K, L and M POES satellites begin the fifth generation of improved environmental monitoring in support of NOAA missions. The instrument payload has significant improvements and additions/deletions. The instrument changes have effected the spacecraft subsystems and data formats.

NOAA 16 DEB was lifted into orbit during the mission ‘Titan II SLV | NOAA 16’, on board a Titan II SLV space rocket.

The launch took place on Sept. 21, 2000, 10:22 a.m. from Space Launch Complex 4W.

For more information about the launch, click the button.

Launch to space Titan II SLV | NOAA 16
Titan II SLV | NOAA 16

Agency: N/A

Status: Launch Successful

Launch date: Sept. 21, 2000, 10:22 a.m. UTC

Rocket: Titan II SLV

Launch pad: Space Launch Complex 4W

Location: Vandenberg SFB, CA, USA

...

Latest news about this satellite

There are no fresh news available about this satellite. Check back as we update our databases every day.


Newsletter sign-up

Weekly statistics, charts and insights to help you stay on top of the space industry.